Location: BAF
(53.9483°N, 27.7497°E)
Time: 23:44:26
(UTC+02:00)

ISS - Pass Details

Date: 01 December 2020
Orbit: 418 x 419 km, 51.6° (Epoch: 16 January)

Event Time Altitude Azimuth Distance (km) Brightness Sun altitude
Rises 18:20:40 0° 273° (W) 2,368 1.5 -20.8°
Reaches altitude 10° 18:22:49 10° 268° (W) 1,503 0.2 -21.1°
Enters shadow 18:25:58 48° 200° (SSW) 557 -3.1 -21.6°
